Total_Precipitation_Accumulation
1.83 1.89 1.82 1.78 1.76 1.64 1.56 1.60 1.64 1.49 1.34 1.12 0.99 0.88 0.89 0.89 0.98 0.77 0.64 0.63 0.52 0.41 0.34 0.29 0.29 0.30 0.33 0.37 0.42 0.47 0.50 0.49 0.47 0.45 0.46 0.49 0.51 0.51
1.81 1.91 1.91 1.92 1.95 1.86 1.70 1.63 1.54 1.50 1.43 1.20 1.00 0.88 1.00 0.96 1.02 0.81 0.72 0.79 0.65 0.55 0.44 0.38 0.34 0.34 0.32 0.29 0.27 0.28 0.32 0.35 0.38 0.41 0.48 0.66 0.74 0.70
1.62 1.71 1.82 1.93 2.02 2.03 1.99 1.83 1.67 1.60 1.51 1.34 1.10 0.91 1.02 1.09 1.04 0.93 0.82 0.72 0.67 0.62 0.52 0.46 0.41 0.37 0.37 0.36 0.31 0.26 0.25 0.26 0.27 0.31 0.37 0.49 0.76 0.84
1.43 1.40 1.51 1.63 1.76 1.91 1.97 1.91 1.87 1.75 1.65 1.58 1.38 1.11 0.98 1.02 1.04 1.07 0.98 0.82 0.76 0.78 0.70 0.60 0.52 0.45 0.40 0.38 0.35 0.32 0.27 0.26 0.25 0.24 0.27 0.31 0.38 0.51
1.22 1.19 1.21 1.32 1.46 1.59 1.68 1.75 1.85 1.88 1.83 1.70 1.58 1.38 1.14 1.09 1.13 1.11 1.08 1.11 0.95 0.87 0.85 0.78 0.72 0.64 0.58 0.51 0.44 0.39 0.34 0.31 0.29 0.25 0.23 0.24 0.27 0.34
0.99 1.00 1.03 1.06 1.12 1.24 1.40 1.60 1.76 1.86 1.90 1.85 1.72 1.49 1.32 1.26 1.23 1.22 1.24 1.24 1.19 1.03 0.96 0.89 0.89 0.80 0.72 0.64 0.56 0.49 0.45 0.43 0.41 0.36 0.30 0.25 0.21 0.23
0.81 0.73 0.74 0.79 0.79 0.85 0.92 1.19 1.43 1.61 1.72 1.78 1.71 1.51 1.32 1.23 1.13 1.16 1.24 1.34 1.36 1.29 1.19 1.02 0.94 0.86 0.81 0.78 0.70 0.60 0.52 0.49 0.47 0.43 0.40 0.38 0.33 0.29
0.70 0.64 0.62 0.66 0.59 0.55 0.58 0.77 1.04 1.23 1.39 1.53 1.57 1.42 1.27 1.19 1.21 1.21 1.20 1.21 1.21 1.13 1.07 1.09 1.02 0.95 0.88 0.82 0.85 0.81 0.72 0.63 0.55 0.50 0.48 0.49 0.49 0.48
0.74 0.74 0.67 0.64 0.72 0.63 0.57 0.63 0.71 0.81 0.95 1.17 1.35 1.34 1.40 1.31 1.19 1.12 1.11 1.11 1.11 1.14 1.08 1.03 0.98 0.91 0.84 0.82 0.89 0.86 0.84 0.80 0.72 0.66 0.61 0.58 0.57 0.57
0.81 0.88 0.88 0.81 0.79 0.84 0.79 0.80 0.78 0.71 0.78 0.70 0.87 1.19 1.32 1.34 1.26 1.22 1.24 1.16 1.08 1.08 1.05 1.04 1.01 0.93 0.80 0.73 0.77 0.72 0.69 0.68 0.71 0.75 0.78 0.78 0.73 0.69
0.76 0.87 0.87 0.80 0.85 0.90 1.00 1.05 0.97 0.83 0.98 0.99 0.90 0.97 1.08 1.11 1.14 1.16 1.17 1.11 1.06 1.02 0.89 0.83 0.82 0.85 0.84 0.79 0.72 0.70 0.63 0.60 0.59 0.58 0.57 0.60 0.65 0.70
0.77 0.82 0.96 0.87 0.85 0.83 0.88 0.99 0.97 0.86 0.77 0.81 0.77 0.67 0.61 0.70 0.86 0.95 1.13 1.18 1.11 1.01 0.86 0.78 0.79 0.76 0.79 0.72 0.62 0.61 0.57 0.57 0.55 0.52 0.51 0.48 0.49 0.51
0.88 0.93 0.91 0.98 0.82 0.78 0.77 0.75 0.80 0.78 0.76 0.83 0.89 0.80 0.69 0.65 0.68 0.72 0.84 0.96 1.03 0.96 0.86 0.75 0.76 0.74 0.66 0.59 0.57 0.57 0.56 0.54 0.50 0.50 0.50 0.49 0.48 0.44
0.78 0.78 0.75 0.82 0.66 0.58 0.55 0.61 0.65 0.65 0.70 0.83 0.86 0.83 0.81 0.75 0.70 0.69 0.71 0.77 0.83 0.87 0.85 0.76 0.71 0.68 0.64 0.56 0.53 0.55 0.53 0.50 0.47 0.45 0.43 0.49 0.51 0.53
0.51 0.59 0.59 0.57 0.51 0.45 0.49 0.53 0.55 0.56 0.63 0.70 0.73 0.72 0.72 0.74 0.72 0.71 0.69 0.69 0.67 0.62 0.60 0.62 0.66 0.69 0.66 0.60 0.52 0.51 0.52 0.49 0.44 0.43 0.43 0.40 0.39 0.43
0.41 0.43 0.42 0.41 0.42 0.42 0.45 0.49 0.55 0.58 0.60 0.60 0.61 0.65 0.66 0.70 0.74 0.71 0.70 0.71 0.73 0.70 0.66 0.65 0.67 0.71 0.71 0.64 0.57 0.50 0.49 0.50 0.47 0.44 0.42 0.42 0.40 0.38
0.49 0.43 0.39 0.39 0.41 0.48 0.49 0.47 0.50 0.54 0.54 0.53 0.54 0.56 0.55 0.60 0.64 0.63 0.64 0.65 0.64 0.60 0.61 0.63 0.65 0.67 0.68 0.68 0.70 0.65 0.63 0.60 0.57 0.55 0.53 0.49 0.44 0.42
0.48 0.54 0.55 0.60 0.62 0.60 0.57 0.49 0.44 0.44 0.49 0.53 0.53 0.53 0.53 0.52 0.56 0.58 0.56 0.58 0.58 0.52 0.48 0.48 0.52 0.57 0.60 0.57 0.53 0.54 0.60 0.62 0.65 0.66 0.60 0.56 0.51 0.48
0.44 0.59 0.59 0.57 0.53 0.50 0.46 0.40 0.35 0.32 0.32 0.38 0.47 0.54 0.54 0.54 0.58 0.61 0.57 0.51 0.50 0.51 0.48 0.42 0.40 0.45 0.48 0.44 0.41 0.38 0.42 0.49 0.54 0.57 0.56 0.52 0.48 0.49
0.38 0.46 0.45 0.43 0.36 0.29 0.22 0.17 0.16 0.16 0.16 0.20 0.24 0.33 0.47 0.57 0.65 0.67 0.68 0.67 0.64 0.60 0.55 0.46 0.38 0.33 0.34 0.34 0.31 0.28 0.27 0.33 0.41 0.43 0.42 0.44 0.43 0.46
0.18 0.18 0.18 0.18 0.17 0.13 0.10 0.08 0.06 0.07 0.08 0.10 0.13 0.18 0.27 0.39 0.55 0.65 0.68 0.72 0.70 0.70 0.67 0.60 0.55 0.54 0.44 0.40 0.36 0.27 0.24 0.25 0.27 0.29 0.31 0.33 0.34 0.33
0.08 0.08 0.07 0.06 0.07 0.06 0.06 0.06 0.05 0.05 0.05 0.08 0.13 0.19 0.27 0.32 0.37 0.45 0.56 0.60 0.57 0.53 0.55 0.58 0.59 0.58 0.53 0.51 0.47 0.37 0.29 0.26 0.29 0.33 0.30 0.29 0.26 0.24
0.07 0.06 0.06 0.04 0.04 0.05 0.05 0.05 0.04 0.05 0.05 0.07 0.10 0.16 0.23 0.31 0.35 0.37 0.39 0.42 0.46 0.50 0.52 0.53 0.53 0.53 0.55 0.56 0.58 0.53 0.43 0.37 0.36 0.38 0.40 0.47 0.42 0.30